FW6321 Weather Reports


Display with metric or nautical units.
time (UTC)temp
F
wind
direction
speed
MPH
gust
MPH
rain 1hr
in
rain 24hr
in
rain mn
in
humidity
%
barometer
mb
20260502195911 63 351 3.0 7.0 0.00 0.01 0.01 68 1014.5
20260502195400 63 29 4.0 7.0 0.00 0.01 0.01 68 1014.5
20260502194900 63 9 4.0 8.0 0.00 0.01 0.01 68 1014.5
20260502194402 63 13 5.0 9.0 0.00 0.01 0.01 68 1014.6
20260502193856 63 1 5.0 10.0 0.00 0.01 0.01 67 1014.6
20260502193357 63 48 5.0 10.0 0.00 0.01 0.01 68 1014.6
20260502192858 64 23 5.0 10.0 0.00 0.01 0.01 68 1014.7
20260502192356 64 7 4.0 8.0 0.00 0.01 0.01 68 1014.8
20260502191854 64 335 4.0 8.0 0.00 0.01 0.01 68 1014.7
20260502191355 64 335 4.0 9.0 0.00 0.01 0.01 67 1014.7
20260502190851 64 345 5.0 9.0 0.00 0.01 0.01 67 1014.8
20260502190352 64 330 5.0 9.0 0.00 0.01 0.01 67 1014.8
20260502185933 64 346 6.0 10.0 0.00 0.01 0.01 67 1014.8
20260502184850 65 351 6.0 12.0 0.00 0.01 0.01 67 1014.8
20260502184350 65 351 6.0 11.0 0.00 0.01 0.01 67 1015.0
20260502183925 65 347 5.0 10.0 0.00 0.01 0.01 67 1014.9
20260502182349 66 358 5.0 13.0 0.00 0.01 0.01 67 1014.7
20260502181850 66 7 5.0 10.0 0.00 0.01 0.01 68 1014.8
20260502181354 67 15 5.0 10.0 0.00 0.01 0.01 68 1014.9
20260502180848 67 335 6.0 10.0 0.00 0.01 0.01 67 1014.9
20260502180348 68 21 5.0 10.0 0.00 0.01 0.01 66 1014.9
20260502170351 71 335 4.0 8.0 0.00 0.01 0.01 59 1015.0
20260502164346 71 320 4.0 8.0 0.00 0.01 0.01 58 1015.5
20260502163845 71 271 4.0 8.0 0.00 0.01 0.01 57 1015.6
20260502163346 71 318 3.0 8.0 0.00 0.01 0.01 60 1015.6
20260502162846 71 342 3.0 7.0 0.00 0.01 0.01 59 1015.8
20260502162455 71 330 4.0 8.0 0.00 0.01 0.01 59 1015.8
20260502160848 71 330 3.0 9.0 0.00 0.01 0.01 62 1015.9
20260502160420 71 339 4.0 8.0 0.00 0.01 0.01 59 1016.0
20260502151845 72 353 3.0 7.0 0.00 0.01 0.01 59 1016.4
20260502151344 72 241 3.0 9.0 0.00 0.01 0.01 59 1016.5
20260502150839 73 254 3.0 9.0 0.00 0.01 0.01 61 1016.6
20260502150340 73 224 5.0 11.0 0.00 0.01 0.01 61 1016.7
20260502130332 72 237 5.0 10.0 0.00 0.01 0.01 69 1018.0
20260502123332 71 208 7.0 14.0 0.00 0.01 0.01 72 1018.0
20260502122832 71 254 6.0 14.0 0.00 0.01 0.01 72 1018.2
20260502122331 71 230 6.0 11.0 0.00 0.01 0.01 71 1018.2
20260502121833 71 229 7.0 17.0 0.00 0.01 0.01 72 1018.3
20260502121333 71 215 6.0 17.0 0.00 0.01 0.01 70 1018.3
20260502120901 71 168 6.0 13.0 0.00 0.01 0.01 72 1018.4
20260502115832 71 238 6.0 14.0 0.00 0.01 0.01 73 1018.4
20260502115332 71 185 7.0 15.0 0.00 0.01 0.01 71 1018.5
20260502114831 71 227 5.0 15.0 0.00 0.01 0.01 70 1018.6
20260502114331 71 258 5.0 11.0 0.00 0.01 0.01 71 1018.7
20260502113833 70 224 6.0 14.0 0.00 0.01 0.01 72 1018.6
20260502113331 70 213 6.0 14.0 0.00 0.01 0.01 71 1018.7
20260502112832 70 164 7.0 12.0 0.00 0.01 0.01 73 1018.8
20260502112334 69 233 6.0 13.0 0.00 0.01 0.01 74 1018.8
20260502111937 69 260 7.0 17.0 0.00 0.01 0.01 74 1019.0
20260502110347 70 235 5.0 12.0 0.00 0.01 0.01 72 1018.9
20260502105831 70 202 5.0 11.0 0.00 0.01 0.01 73 1019.0
20260502105410 69 206 5.0 11.0 0.00 0.01 0.01 74 1019.0
20260502104330 69 239 5.0 10.0 0.00 0.01 0.01 73 1019.1
20260502103830 69 252 5.0 10.0 0.00 0.01 0.01 74 1019.1
20260502103336 68 237 5.0 14.0 0.00 0.01 0.01 75 1019.2
20260502102830 68 138 6.0 14.0 0.00 0.01 0.01 75 1019.3
20260502102408 68 179 6.0 12.0 0.00 0.01 0.01 75 1019.3
20260502101405 67 236 5.0 10.0 0.00 0.01 0.01 77 1019.3
20260502100410 68 176 5.0 10.0 0.00 0.01 0.01 76 1019.3
20260502091327 66 254 4.0 8.0 0.00 0.01 0.01 79 1019.5
20260502090825 66 225 4.0 9.0 0.00 0.01 0.01 80 1019.5
20260502090436 65 164 3.0 9.0 0.00 0.01 0.01 81 1019.6
20260502070849 57 96 1.0 3.0 0.01 0.01 0.01 85 1019.0
20260502065815 57 358 0.0 1.0 0.01 0.01 0.01 84 1019.2
20260502065315 57 358 0.0 1.0 0.01 0.01 0.01 84 1019.2
20260502064813 57 358 1.0 3.0 0.01 0.01 0.01 83 1019.2
20260502064313 57 358 1.0 3.0 0.01 0.01 0.01 83 1019.0
20260502063812 57 294 0.0 1.0 0.01 0.01 0.01 81 1019.0
20260502063315 57 294 1.0 3.0 0.01 0.01 0.01 80 1019.2
20260502062814 57 294 2.0 3.0 0.01 0.01 0.01 78 1019.2
20260502062315 58 228 1.0 3.0 0.01 0.01 0.01 77 1019.4
20260502061835 58 201 1.0 5.0 0.00 0.00 0.00 75 1019.5
20260502060809 57 212 3.0 6.0 0.00 0.00 0.00 74 1019.6
20260502060347 57 186 3.0 5.0 0.00 0.00 0.00 74 1019.6
20260502055309 56 181 2.0 6.0 0.00 0.00 0.00 76 1019.5
20260502054808 55 174 1.0 4.0 0.00 0.00 0.00 76 1019.5
20260502054310 55 199 0.0 3.0 0.00 0.00 0.00 76 1019.5
20260502053836 55 199 0.0 1.0 0.00 0.00 0.00 75 1019.3
20260502052808 55 199 0.0 2.0 0.00 0.00 0.00 73 1019.3
20260502052306 55 199 1.0 2.0 0.00 0.00 0.00 73 1019.3
20260502051806 55 200 1.0 3.0 0.00 0.00 0.00 73 1019.4
20260502051306 55 199 1.0 3.0 0.00 0.00 0.00 73 1019.3
20260502050811 55 199 1.0 3.0 0.00 0.00 0.00 73 1019.3
20260502050306 54 199 0.0 3.0 0.00 0.00 0.00 72 1019.2
20260502045806 54 199 1.0 3.0 0.00 0.00 0.00 72 1019.2
20260502045306 54 199 1.0 3.0 0.00 0.00 0.00 71 1019.2
20260502044807 54 205 1.0 3.0 0.00 0.00 0.00 71 1019.1
20260502044304 54 227 2.0 4.0 0.00 0.00 0.00 71 1019.2
20260502043807 54 199 1.0 4.0 0.00 0.00 0.00 72 1019.2
20260502043310 54 218 2.0 6.0 0.00 0.00 0.00 72 1019.2
20260502042807 54 189 3.0 6.0 0.00 0.00 0.00 73 1019.3
20260502042306 53 224 2.0 5.0 0.00 0.00 0.00 75 1019.3
20260502041805 53 212 1.0 5.0 0.00 0.00 0.00 75 1019.3
20260502041332 53 293 2.0 5.0 0.00 0.00 0.00 75 1019.0
20260502040337 53 163 2.0 3.0 0.00 0.00 0.00 75 1019.1
20260502035306 52 170 1.0 3.0 0.00 0.00 0.00 75 1019.2
20260502034805 52 173 1.0 3.0 0.00 0.00 0.00 75 1019.2
20260502034303 52 162 1.0 4.0 0.00 0.00 0.00 75 1019.1
20260502033805 52 160 1.0 4.0 0.00 0.00 0.00 75 1019.2
20260502033339 52 199 1.0 5.0 0.00 0.00 0.00 74 1019.3
20260502032309 52 116 2.0 5.0 0.00 0.00 0.00 74 1019.3
20260502031806 52 112 1.0 5.0 0.00 0.00 0.00 74 1019.2
20260502031303 52 172 1.0 2.0 0.00 0.00 0.00 74 1019.4
20260502030807 52 141 2.0 5.0 0.00 0.00 0.00 74 1019.3
20260502030344 52 160 2.0 5.0 0.00 0.00 0.00 75 1019.4
20260502025306 51 125 2.0 5.0 0.00 0.00 0.00 77 1019.5
20260502024802 51 176 1.0 3.0 0.00 0.00 0.00 77 1019.5
20260502024303 51 167 1.0 3.0 0.00 0.00 0.00 78 1019.5
20260502023802 51 85 2.0 4.0 0.00 0.00 0.00 78 1019.4
20260502023303 51 78 1.0 4.0 0.00 0.00 0.00 77 1019.4
20260502022801 51 245 1.0 4.0 0.00 0.00 0.00 78 1019.7
20260502022306 51 125 1.0 3.0 0.00 0.00 0.00 79 1019.5
20260502021903 51 141 1.0 2.0 0.00 0.00 0.00 78 1019.6
20260502020307 52 148 1.0 2.0 0.00 0.00 0.00 76 1019.7
20260502015933 52 148 1.0 2.0 0.00 0.00 0.00 76 1019.8
20260502013758 52 139 1.0 4.0 0.00 0.00 0.00 76 1019.8
20260502013258 52 133 2.0 4.0 0.00 0.00 0.00 76 1019.8
20260502012756 52 147 2.0 3.0 0.00 0.00 0.00 77 1019.9
20260502012256 52 129 1.0 4.0 0.00 0.00 0.00 77 1019.9
20260502011753 52 133 1.0 4.0 0.00 0.00 0.00 78 1019.9
20260502011254 52 160 2.0 4.0 0.00 0.00 0.00 78 1020.0
20260502010758 52 166 1.0 4.0 0.00 0.00 0.00 79 1020.0
20260502010254 52 131 1.0 2.0 0.00 0.00 0.00 79 1020.0
20260502005754 52 131 1.0 2.0 0.00 0.00 0.00 80 1020.1
20260502005253 52 131 1.0 3.0 0.00 0.00 0.00 80 1020.1
20260502004751 52 131 1.0 3.0 0.00 0.00 0.00 80 1020.1
20260502004406 52 108 1.0 3.0 0.00 0.00 0.00 79 1020.1
20260502002825 53 115 1.0 2.0 0.00 0.00 0.00 80 1020.3
20260502001749 53 116 1.0 2.0 0.00 0.00 0.00 79 1020.4
20260502001249 53 116 1.0 2.0 0.00 0.00 0.00 79 1020.4
20260502000814 53 116 1.0 2.0 0.00 0.00 0.00 78 1020.4
20260501235744 53 116 1.0 2.0 0.00 0.00 0.00 78 1020.5
20260501235244 53 116 1.0 2.0 0.00 0.00 0.00 78 1020.5
20260501234744 53 115 1.0 2.0 0.00 0.00 0.00 78 1020.6
20260501234240 52 116 1.0 2.0 0.00 0.00 0.00 77 1020.5
20260501233743 53 116 1.0 2.0 0.00 0.00 0.00 77 1020.6
20260501233240 53 115 1.0 2.0 0.00 0.00 0.00 77 1020.6
20260501232741 53 116 1.0 2.0 0.00 0.00 0.00 76 1020.7
20260501232400 53 116 1.0 2.0 0.00 0.00 0.00 76 1020.7
20260501231236 54 119 1.0 3.0 0.00 0.00 0.00 76 1020.8
20260501230740 54 119 1.0 2.0 0.00 0.00 0.00 76 1020.8
20260501230239 54 119 1.0 2.0 0.00 0.00 0.00 76 1020.8
20260501225738 54 119 1.0 2.0 0.00 0.00 0.00 76 1020.8
20260501225237 54 119 1.0 2.0 0.00 0.00 0.00 76 1020.8
20260501224736 54 119 1.0 2.0 0.00 0.00 0.00 76 1020.9
20260501224237 54 119 1.0 2.0 0.00 0.00 0.00 76 1020.9
20260501223732 54 117 1.0 2.0 0.00 0.00 0.00 77 1020.9
20260501223231 53 113 1.0 2.0 0.00 0.00 0.00 78 1020.9
20260501222731 53 113 1.0 2.0 0.00 0.00 0.00 78 1021.0
20260501222233 53 113 1.0 2.0 0.00 0.00 0.00 78 1021.1
20260501221731 53 113 1.0 2.0 0.00 0.00 0.00 78 1021.0
20260501221231 53 93 0.0 2.0 0.00 0.00 0.00 79 1021.0
20260501220731 53 318 0.0 1.0 0.00 0.00 0.00 80 1021.1
20260501220229 53 318 0.0 0.0 0.00 0.00 0.00 81 1021.0
20260501215729 54 318 0.0 1.0 0.00 0.00 0.00 80 1021.0
20260501215228 54 318 0.0 1.0 0.00 0.00 0.00 80 1021.0
20260501214731 54 318 0.0 0.0 0.00 0.00 0.00 80 1021.1
20260501214228 54 318 0.0 1.0 0.00 0.00 0.00 79 1021.1
20260501213729 54 318 0.0 1.0 0.00 0.00 0.00 79 1021.1
20260501213229 54 318 1.0 2.0 0.00 0.00 0.00 79 1021.1
20260501212728 55 318 1.0 2.0 0.00 0.00 0.00 79 1021.1
20260501212249 55 318 0.0 1.0 0.00 0.00 0.00 80 1021.1
20260501211247 55 318 0.0 1.0 0.00 0.00 0.00 78 1021.1
20260501210225 56 318 1.0 1.0 0.00 0.00 0.00 75 1021.1
20260501205726 56 318 1.0 2.0 0.00 0.00 0.00 75 1021.2
20260501205222 56 318 1.0 2.0 0.00 0.00 0.00 74 1021.2
20260501204723 57 318 1.0 2.0 0.00 0.00 0.00 72 1021.2
20260501204223 57 318 0.0 2.0 0.00 0.00 0.00 72 1021.2
20260501203719 58 318 0.0 1.0 0.00 0.00 0.00 72 1021.2
20260501203221 58 318 0.0 2.0 0.00 0.00 0.00 70 1021.2
20260501202718 58 318 1.0 2.0 0.00 0.00 0.00 69 1021.3
20260501202216 58 318 0.0 2.0 0.00 0.00 0.00 70 1021.3
20260501201716 59 318 0.0 0.0 0.00 0.00 0.00 70 1021.2
20260501201214 59 318 0.0 0.0 0.00 0.00 0.00 69 1021.3
20260501200714 59 318 0.0 1.0 0.00 0.00 0.00 68 1021.3